This is the latest recevied weather packets stored in our database for station/object KE5YIM-13. If no packets are shown the sender has not sent any weather packets the latest 1 day(s).
| Time | Temp. | Humidity | Pressure | Rain* | Wind** | Luminosity | Snow |
|---|---|---|---|---|---|---|---|
| 1836274582 | 14.44° C | 82% | 1020.3 hPa | 0 mm | 0 m/s | 0 W/m² | - |
| 1836274436 | 14.44° C | 82% | 1020.5 hPa | 0 mm | 0 m/s | 0 W/m² | - |
| 1836274281 | 14.44° C | 82% | 1020.1 hPa | 0 mm | 0 m/s | 0 W/m² | - |
| 1836274134 | 14.44° C | 82% | 1020.3 hPa | 0 mm | 0 m/s | 0 W/m² | - |
| 1836273980 | 14.44° C | 83% | 1020.3 hPa | 0 mm | 0 m/s | 0 W/m² | - |
| 1778041570 | 16.11° C | 79% | 1012.3 hPa | 0 mm | 1.79 m/s, 138° | 0 W/m² | - |
| 1778041267 | 16.11° C | 78% | 1012.3 hPa | 0 mm | 1.34 m/s, 244° | 0 W/m² | - |
| 1778040966 | 16.67° C | 78% | 1012.3 hPa | 0 mm | 1.79 m/s, 181° | 0 W/m² | - |
| 1778040662 | 16.67° C | 78% | 1012.2 hPa | 0 mm | 2.24 m/s, 263° | 0 W/m² | - |
| 1778040360 | 16.67° C | 77% | 1012.3 hPa | 0 mm | 1.34 m/s, 197° | 0 W/m² | - |
| 1778040056 | 16.67° C | 77% | 1012 hPa | 0 mm | 2.24 m/s, 177° | 0 W/m² | - |
| 1778039753 | 16.67° C | 77% | 1012.1 hPa | 0 mm | 1.34 m/s, 240° | 0 W/m² | - |
| 1778039450 | 16.67° C | 77% | 1012.4 hPa | 0 mm | 1.34 m/s, 187° | 0 W/m² | - |
| 1778039147 | 16.67° C | 77% | 1012.1 hPa | 0 mm | 0.89 m/s, 115° | 0 W/m² | - |
| 1778038844 | 16.67° C | 77% | 1012 hPa | 0 mm | 0.89 m/s, 192° | 0 W/m² | - |
| 1778038541 | 16.67° C | 77% | 1012.1 hPa | 0 mm | 1.79 m/s, 245° | 0 W/m² | - |
| 1778038238 | 16.67° C | 77% | 1011.9 hPa | 0 mm | 1.79 m/s, 238° | 0 W/m² | - |
| 1778037936 | 16.67° C | 77% | 1012 hPa | 0 mm | 0.89 m/s, 119° | 0 W/m² | - |
| 1778037632 | 16.67° C | 76% | 1012.1 hPa | 0 mm | 2.24 m/s, 109° | 0 W/m² | - |
| 1778037330 | 16.67° C | 76% | 1012.1 hPa | 0 mm | 1.34 m/s, 140° | 0 W/m² | - |
| 1778037027 | 16.67° C | 76% | 1012 hPa | 0 mm | 2.24 m/s, 169° | 0 W/m² | - |
| 1778036725 | 16.67° C | 76% | 1012.2 hPa | 0 mm | 1.79 m/s, 123° | 0 W/m² | - |
| 1778036422 | 16.67° C | 75% | 1012.1 hPa | 0 mm | 1.34 m/s, 279° | 0 W/m² | - |
| 1778036119 | 16.67° C | 74% | 1012.3 hPa | 0 mm | 1.79 m/s, 240° | 0 W/m² | - |
| 1778035815 | 16.67° C | 74% | 1012.1 hPa | 0 mm | 1.34 m/s, 124° | 0 W/m² | - |
* Rain latest hour (hover to see other rain measurements)
** Current wind speed in m/s (hover to see current wind gust speed)